Location: Monroe
(41.9160°N, 83.3980°W)
Time: 19:25:28
(UTC-04:00)

Amateur Radio Satellites - All Passes

Search period start: 24 May 2016 18:55
Search period end: 25 May 2016 18:55
Location: Monroe, 41.9160°N, 83.3980°W

Satellite Date Start Highest point End Downlink Frequencies (MHz)
Time Altitude Azimuth
CUTE-I 24 May 18:55:51 19:01:09 78° 74° (ENE) 19:06:29 437.470
GOMX 1 24 May 18:59:07 19:04:21 46° 71° (ENE) 19:09:32 467.674
HO-68 24 May 19:03:00 19:07:35 19° 54° (NE) 19:12:11 435.675
KKS-1 24 May 19:03:19 19:04:17 11° 300° (WNW) 19:05:16 437.445
LilacSat-2 24 May 19:11:26 19:15:14 75° 258° (WSW) 19:19:03 437.200
NOAA 18 24 May 19:18:30 19:23:51 54° 259° (W) 19:29:11 137.9125
CINEMA 3 24 May 19:27:37 19:29:47 13° 63° (ENE) 19:31:56 145.822/145.860
RS-15 24 May 19:29:27 19:40:50 83° 304° (WNW) 19:52:56 29.354- 29.394
Cubesat XI-IV 24 May 19:49:00 19:53:51 36° 263° (W) 19:58:43 437.490
AUBIESAT-1 24 May 19:53:58 19:57:57 42° 67° (ENE) 20:01:40 437.475
BRITE-PL 24 May 19:55:10 20:00:04 31° 266° (W) 20:05:07 437.365/2234.400
M-CUBED/EXP-1 PRIME 24 May 19:57:18 20:01:32 57° 69° (ENE) 20:05:27 437.505
NOAA 15 24 May 19:57:53 20:01:48 21° 267° (W) 20:05:46 137.62
STRAND 1 24 May 20:01:10 20:05:23 25° 95° (E) 20:09:34 437.568
Cosmos 2504 24 May 20:01:59 20:08:42 42° 287° (WNW) 20:15:48 435.465 / 435.565
DOVE 4 24 May 20:05:26 20:10:43 87° 259° (W) 20:15:52 437.250
CUBESAT XI-V 24 May 20:06:43 20:10:34 25° 293° (WNW) 20:14:24 437.345
PCSat 24 May 20:08:24 20:13:44 53° 56° (NE) 20:19:01 145.827
CANX-2 24 May 20:22:05 20:26:04 43° 72° (ENE) 20:30:05 2200.000
SEEDS 24 May 20:31:56 20:35:44 35° 71° (ENE) 20:39:34 437.485
GOMX 1 24 May 20:38:09 20:42:33 25° 267° (W) 20:46:58 467.674
CUBEBUG 2 24 May 20:38:57 20:42:15 21° 67° (ENE) 20:45:29 437.445
CUTE-I 24 May 20:39:24 20:41:47 13° 271° (W) 20:44:11 437.470
Oscar 11 24 May 20:42:49 20:44:31 12° 62° (ENE) 20:46:13 145.826/435.025
HO-68 24 May 20:47:11 20:54:20 88° 73° (ENE) 21:01:32 435.675
CUTE 1.7 + AOD 2 24 May 20:49:46 20:53:58 80° 74° (ENE) 20:58:11 437.475
ZACube-1 24 May 20:50:10 20:51:59 13° 63° (ENE) 20:53:46 437.345
O/OREOS (USA 219) 24 May 20:53:22 20:57:53 80° 66° (ENE) 21:02:20 437.305
CINEMA 3 24 May 21:01:34 21:06:23 73° 258° (WSW) 21:11:01 145.822/145.860
BEESAT 3 24 May 21:06:39 21:09:51 23° 46° (NE) 21:13:03 437.485
UWE-3 24 May 21:14:03 21:17:57 33° 70° (ENE) 21:21:46 435.000/436.395/437.385
AIST 1 24 May 21:18:42 21:20:21 12° 83° (E) 21:21:59
COMPASS 1 24 May 21:24:00 21:28:07 82° 257° (WSW) 21:32:18 437.405
FUNcube-1 24 May 21:28:00 21:31:41 29° 70° (ENE) 21:35:19 145.935
AUBIESAT-1 24 May 21:29:50 21:32:32 17° 260° (W) 21:35:09 437.475
AAUSAT CUBESAT 2 24 May 21:29:55 21:34:02 87° 262° (W) 21:38:11 437.432
M-CUBED/EXP-1 PRIME 24 May 21:34:20 21:36:16 13° 262° (W) 21:38:10 437.505
PRISM 24 May 21:38:31 21:42:30 41° 99° (E) 21:46:26 437.425
STRAND 1 24 May 21:39:52 21:44:39 40° 291° (WNW) 21:49:26 437.568
RS-15 24 May 21:45:18 21:55:24 33° 332° (NNW) 22:06:00 29.354- 29.394
DOVE 4 24 May 21:48:11 21:49:00 10° 273° (W) 21:49:50 437.250
PCSat 24 May 21:52:39 21:56:44 22° 253° (WSW) 22:00:48 145.827
CANX-2 24 May 21:59:35 22:02:08 16° 268° (W) 22:04:43 2200.000
BEESAT 2 24 May 22:02:25 22:06:17 46° 53° (NE) 22:10:07 435.950
SEEDS 24 May 22:08:34 22:11:33 19° 267° (W) 22:14:33 437.485
CUBEBUG 2 24 May 22:14:34 22:18:40 36° 262° (W) 22:22:41 437.445
Oscar 11 24 May 22:15:49 22:20:05 67° 260° (W) 22:24:23 145.826/435.025
ZACube-1 24 May 22:23:33 22:27:47 62° 259° (W) 22:31:58 437.345
DELFI C3 24 May 22:27:44 22:31:41 79° 76° (ENE) 22:35:41 145.870
CUSAT 1 24 May 22:32:47 22:38:40 22° 61° (ENE) 22:44:02 437.405
GONETS M04 24 May 22:36:45 22:45:05 49° 89° (E) 22:53:23
HO-68 24 May 22:38:43 22:42:55 16° 271° (W) 22:47:08 435.675
BEESAT 3 24 May 22:44:01 22:47:38 35° 244° (WSW) 22:51:13 437.485
UWE-3 24 May 22:51:07 22:54:28 21° 266° (W) 22:57:46 435.000/436.395/437.385
AIST 1 24 May 22:53:02 22:57:22 59° 280° (W) 23:01:44
Cosmos 2499 24 May 22:53:42 22:59:56 33° 85° (E) 23:06:30 435.465 / 435.565
HUMSAT D 24 May 23:00:37 23:04:43 83° 76° (ENE) 23:08:48 437.325/437.525
AISAT 24 May 23:01:44 23:03:50 13° 62° (ENE) 23:05:56 437.250
FUNcube-1 24 May 23:04:29 23:07:55 23° 265° (W) 23:11:19 145.935
UNISAT 6 24 May 23:14:05 23:17:36 24° 95° (E) 23:21:08 437.425
ISS 24 May 23:14:28 23:17:32 40° 139° (SE) 23:20:38 145.825
PRISM 24 May 23:14:42 23:17:29 18° 295° (WNW) 23:20:15 437.425
TIGRISAT 24 May 23:22:38 23:26:20 28° 96° (E) 23:30:04 435.000
ESTCUBE 1 24 May 23:24:21 23:28:16 30° 68° (ENE) 23:32:12 437.505/2401.250
UKube-1 24 May 23:27:06 23:29:41 16° 63° (ENE) 23:32:16 .
PHONESAT 2.4 24 May 23:28:30 23:29:32 11° 148° (SSE) 23:30:34 2401.200-2431.200
DANDE 24 May 23:37:18 23:44:52 36° 68° (ENE) 23:52:05 436.750
BEESAT 2 24 May 23:41:18 23:43:46 16° 249° (WSW) 23:46:13 435.950
AIST 2 24 May 23:44:38 23:48:31 37° 51° (NE) 23:52:23 435.215
ANTELSAT 24 May 23:54:52 23:59:08 69° 101° (E) 00:03:28 437.575/2403.000
50 SAT 24 May 23:55:56 23:59:23 44° 73° (ENE) 00:02:52 437.505
VELOX 1 24 May 23:59:49 00:04:05 48° 72° (ENE) 00:08:24 145.980
NANOSAT C BR1 25 May 00:00:47 00:02:49 13° 91° (E) 00:04:50 145.865
CUBEBUG 1 25 May 00:01:31 00:05:47 50° 72° (ENE) 00:10:06 437.445
RS-15 25 May 00:03:55 00:13:10 24° 7° (N) 00:22:36 29.354- 29.394
DX 1 25 May 00:05:45 00:09:57 47° 72° (ENE) 00:14:11 434.975-435.025
CUSAT 1 25 May 00:13:52 00:21:52 83° 263° (W) 00:28:40 437.405
GONETS M04 25 May 00:34:04 00:42:04 38° 289° (WNW) 00:50:05
AISAT 25 May 00:35:18 00:39:45 67° 258° (WSW) 00:44:13 437.250
DUCHIFAT 1 25 May 00:39:30 00:43:20 34° 98° (E) 00:47:06 145.980
SPROUT 25 May 00:43:23 00:47:34 54° 74° (ENE) 00:51:47 437.525
Cosmos 2499 25 May 00:45:56 00:52:46 45° 286° (WNW) 01:00:04 435.465 / 435.565
JAS-2 25 May 00:48:48 00:52:06 13° 83° (E) 00:55:18 435.910
UNISAT 6 25 May 00:50:35 00:54:18 29° 291° (WNW) 00:58:03 437.425
ISS 25 May 00:51:07 00:54:02 30° 336° (NNW) 00:56:59 145.825
TIGRISAT 25 May 00:59:26 01:02:56 25° 292° (WNW) 01:06:28 435.000
UKube-1 25 May 01:01:05 01:05:17 52° 259° (W) 01:09:33 .
ESTCUBE 1 25 May 01:01:14 01:05:02 27° 265° (W) 01:08:53 437.505/2401.250
PHONESAT 2.4 25 May 01:02:49 01:05:46 39° 163° (SSE) 01:08:43 2401.200-2431.200
BUGSAT 1 25 May 01:11:13 01:14:57 35° 98° (E) 01:18:38 437.445
POPSAT HIP 1 25 May 01:13:38 01:17:50 87° 292° (WNW) 01:22:02 437.405
QB50P1 25 May 01:14:21 01:18:35 85° 284° (WNW) 01:22:46 145.935-145.965
QB50P2 25 May 01:15:30 01:19:43 78° 284° (WNW) 01:23:55 145.880/145.840
POLYITAN 1 25 May 01:17:56 01:22:08 76° 286° (WNW) 01:26:20 437.675
TISAT 1 25 May 01:19:41 01:23:37 38° 71° (ENE) 01:27:33 437.305
DANDE 25 May 01:19:53 01:28:05 57° 268° (W) 01:35:44 436.750
AIST 2 25 May 01:23:36 01:26:47 21° 248° (WSW) 01:29:57 435.215
50 SAT 25 May 01:32:06 01:33:22 11° 269° (W) 01:34:39 437.505
ANTELSAT 25 May 01:33:47 01:35:19 12° 298° (WNW) 01:36:50 437.575/2403.000
NANOSAT C BR1 25 May 01:34:47 01:38:51 51° 287° (WNW) 01:42:54 145.865
VELOX 1 25 May 01:38:00 01:40:48 16° 268° (W) 01:43:38 145.980
CUBEBUG 1 25 May 01:39:44 01:42:22 15° 269° (W) 01:44:59 437.445
DX 1 25 May 01:43:42 01:46:24 16° 268° (W) 01:49:06 434.975-435.025
CUSAT 1 25 May 01:58:19 02:02:33 16° 283° (WNW) 02:06:31 437.405
Oscar 19 25 May 02:06:37 02:10:34 22° 93° (E) 02:14:30 437.125/150
SWISSCUBE 25 May 02:07:18 02:11:21 29° 67° (ENE) 02:15:25 437.505
SO-50 25 May 02:09:36 02:14:29 74° 121° (ESE) 02:19:23 436.795
ITUPSAT 1 25 May 02:11:44 02:15:46 28° 67° (ENE) 02:19:50 437.325
DUCHIFAT 1 25 May 02:15:41 02:18:48 21° 294° (WNW) 02:21:55 145.980
RS-15 25 May 02:18:26 02:30:02 45° 40° (NE) 02:41:40 29.354- 29.394
SPROUT 25 May 02:21:45 02:23:51 13° 269° (W) 02:25:57 437.525
ISS 25 May 02:29:15 02:31:16 15° 356° (N) 02:33:15 145.825
JAS-2 25 May 02:30:48 02:38:27 78° 103° (ESE) 02:45:18 435.910
BEESAT 25 May 02:36:45 02:41:20 50° 72° (ENE) 02:45:57 436.000
PHONESAT 2.4 25 May 02:39:15 02:42:22 69° 179° (S) 02:45:29 2401.200-2431.200
BUGSAT 1 25 May 02:47:14 02:50:05 19° 294° (WNW) 02:52:55 437.445
TISAT 1 25 May 02:56:29 02:59:25 18° 267° (W) 03:02:21 437.305
YUBILEINY 25 May 02:57:34 03:03:52 21° 63° (ENE) 03:10:10 435.215
DANDE 25 May 03:07:25 03:09:08 11° 286° (WNW) 03:10:50 436.750
STARS 25 May 03:32:41 03:34:36 13° 61° (ENE) 03:36:33 437.465
Gurwin Techsat 1B 25 May 03:42:49 03:48:10 74° 103° (ESE) 03:53:28 435.225
SWISSCUBE 25 May 03:44:52 03:49:03 31° 264° (W) 03:53:16 437.505
Oscar 19 25 May 03:45:11 03:50:06 45° 290° (WNW) 03:54:58 437.125/150
ITUPSAT 1 25 May 03:49:18 03:53:31 31° 264° (W) 03:57:45 437.325
SO-50 25 May 03:51:59 03:55:30 19° 320° (NW) 03:59:02 436.795
AO-7 25 May 03:52:50 03:58:11 18° 90° (E) 04:03:32 29.400- 29.500
Cosmos 2491 25 May 03:53:13 03:59:28 22° 79° (E) 04:05:40 435.465 / 435.565
Cosmos 2504 25 May 04:00:58 04:05:17 15° 60° (ENE) 04:09:41 435.465 / 435.565
ISS 25 May 04:06:03 04:08:36 20° 17° (NNE) 04:11:09 145.825
MOZHAYETS 4 25 May 04:15:19 04:19:40 46° 72° (ENE) 04:24:02
PHONESAT 2.4 25 May 04:16:00 04:18:58 40° 196° (SSW) 04:21:55 2401.200-2431.200
BEESAT 25 May 04:16:18 04:19:24 17° 268° (W) 04:22:32 436.000
JAS-2 25 May 04:16:54 04:22:33 23° 303° (WNW) 04:27:52 435.910
ITAMSAT 1 25 May 04:19:41 04:24:52 63° 102° (ESE) 04:30:03 435.822/435.867
KKS-1 25 May 04:21:56 04:26:25 79° 74° (ENE) 04:30:54 437.445
RS-15 25 May 04:31:11 04:43:19 68° 245° (WSW) 04:55:22 29.354- 29.394
YUBILEINY 25 May 04:53:02 05:01:48 85° 264° (W) 05:10:36 435.215
STARS 25 May 05:06:01 05:10:24 68° 257° (WSW) 05:14:49 437.465
Gurwin Techsat 1B 25 May 05:24:21 05:27:29 16° 300° (WNW) 05:30:36 435.225
CUBESAT XI-V 25 May 05:32:33 05:36:46 35° 69° (ENE) 05:41:02 437.345
HORYU 2 25 May 05:39:51 05:43:33 25° 96° (E) 05:47:13 437.375
ISS 25 May 05:42:09 05:45:25 88° 35° (NE) 05:48:41 145.825
AO-7 25 May 05:43:33 05:51:59 89° 109° (ESE) 06:00:22 29.400- 29.500
Cosmos 2491 25 May 05:46:23 05:55:14 79° 278° (W) 06:04:07 435.465 / 435.565
Cosmos 2504 25 May 05:51:50 06:00:10 71° 80° (E) 06:08:57 435.465 / 435.565
MOZHAYETS 4 25 May 05:54:04 05:57:05 17° 268° (W) 06:00:06
PHONESAT 2.4 25 May 05:54:07 05:55:12 11° 212° (SSW) 05:56:17 2401.200-2431.200
ITAMSAT 1 25 May 06:00:25 06:03:49 18° 299° (WNW) 06:07:14 435.822/435.867
BRITE-PL 25 May 06:24:12 06:25:32 11° 85° (E) 06:26:49 437.365/2234.400
Cubesat XI-IV 25 May 06:28:37 06:29:45 11° 88° (E) 06:30:52 437.490
NOAA 15 25 May 06:32:27 06:36:03 18° 92° (E) 06:39:37 137.62
LilacSat-2 25 May 06:46:39 06:47:48 11° 90° (E) 06:48:55 437.200
RS-15 25 May 06:47:28 06:53:20 15° 266° (W) 06:59:12 29.354- 29.394
YUBILEINY 25 May 06:52:18 06:57:12 17° 284° (WNW) 07:02:08 435.215
GOMX 1 25 May 07:03:41 07:05:10 11° 86° (E) 07:06:39 467.674
CUBESAT XI-V 25 May 07:10:26 07:14:12 24° 266° (W) 07:18:01 437.345
CUTE-I 25 May 07:12:54 07:17:35 30° 96° (E) 07:22:15 437.470
HORYU 2 25 May 07:16:13 07:20:05 30° 292° (WNW) 07:23:57 437.375
STRAND 1 25 May 07:17:15 07:21:54 37° 68° (ENE) 07:26:34 437.568
ISS 25 May 07:20:36 07:21:23 11° 231° (SW) 07:22:10 145.825
AO-85 25 May 07:34:42 07:40:07 66° 119° (ESE) 07:45:26 145.980
AO-7 25 May 07:37:40 07:43:43 23° 309° (NW) 07:49:47 29.400- 29.500
NOAA 18 25 May 07:39:55 07:45:22 63° 102° (ESE) 07:50:48 137.9125
Cosmos 2504 25 May 07:46:25 07:52:50 25° 278° (W) 07:59:29 435.465 / 435.565
Cosmos 2491 25 May 07:48:22 07:53:39 17° 301° (WNW) 07:58:58 435.465 / 435.565
BRITE-PL 25 May 07:59:32 08:04:49 84° 284° (WNW) 08:09:39 437.365/2234.400
Cubesat XI-IV 25 May 08:05:09 08:10:32 88° 102° (ESE) 08:15:54 437.490
DOVE 4 25 May 08:05:21 08:08:52 23° 93° (E) 08:12:15 437.250
NOAA 15 25 May 08:10:59 08:16:12 57° 289° (WNW) 08:21:21 137.62
HO-68 25 May 08:16:30 08:20:37 16° 89° (E) 08:24:42 435.675
LilacSat-2 25 May 08:18:43 08:22:23 49° 286° (WNW) 08:26:02 437.200
PRISM 25 May 08:28:16 08:31:57 32° 69° (ENE) 08:35:39 437.425
CUTE 1.7 + AOD 2 25 May 08:35:54 08:38:03 14° 91° (E) 08:40:12 437.475
GOMX 1 25 May 08:39:07 08:43:55 70° 286° (WNW) 08:48:21 467.674
Cosmos 2499 25 May 08:44:17 08:48:21 14° 58° (ENE) 08:52:29 435.465 / 435.565
GONETS M04 25 May 08:46:57 08:53:45 25° 65° (ENE) 09:00:30
CUTE-I 25 May 08:52:48 08:57:38 36° 292° (WNW) 09:02:29 437.470
CINEMA 3 25 May 08:56:44 09:00:05 23° 94° (E) 09:03:25 145.822/145.860
STRAND 1 25 May 08:56:53 09:01:07 26° 265° (W) 09:05:25 437.568
AIST 1 25 May 08:59:53 09:03:52 33° 76° (ENE) 09:07:46
SO-50 25 May 09:02:02 09:04:20 13° 34° (NE) 09:06:37 436.795
AUBIESAT-1 25 May 09:07:16 09:09:57 22° 101° (E) 09:12:37 437.475
COMPASS 1 25 May 09:07:40 09:10:15 16° 92° (E) 09:12:49 437.405
M-CUBED/EXP-1 PRIME 25 May 09:11:13 09:14:11 31° 103° (ESE) 09:17:08 437.505
AAUSAT CUBESAT 2 25 May 09:13:14 09:15:33 14° 91° (E) 09:17:52 437.432
AO-85 25 May 09:16:42 09:21:03 24° 317° (NW) 09:25:19 145.980
NOAA 18 25 May 09:21:45 09:25:32 19° 299° (WNW) 09:29:18 137.9125
BRITE-PL 25 May 09:40:42 09:42:18 11° 303° (WNW) 09:43:51 437.365/2234.400
CANX-2 25 May 09:42:06 09:46:25 86° 106° (ESE) 09:50:42 2200.000
DOVE 4 25 May 09:42:42 09:46:39 31° 291° (WNW) 09:50:24 437.250
Cubesat XI-IV 25 May 09:47:19 09:49:50 14° 302° (WNW) 09:52:21 437.490
SEEDS 25 May 09:50:30 09:54:45 68° 101° (E) 09:58:59 437.485
HO-68 25 May 10:01:59 10:09:13 90° 114° (ESE) 10:16:24 435.675
Oscar 11 25 May 10:03:16 10:06:36 21° 94° (E) 10:09:55 145.826/435.025
PRISM 25 May 10:04:07 10:07:18 21° 265° (W) 10:10:31 437.425
CUBEBUG 2 25 May 10:04:38 10:08:34 40° 98° (E) 10:12:31 437.445
CUTE 1.7 + AOD 2 25 May 10:10:02 10:14:13 53° 286° (WNW) 10:18:22 437.475
ZACube-1 25 May 10:11:52 10:15:12 23° 95° (E) 10:18:32 437.345
UNISAT 6 25 May 10:13:29 10:16:58 23° 67° (ENE) 10:20:25 437.425
TIGRISAT 25 May 10:21:47 10:25:27 27° 69° (ENE) 10:29:05 435.000
CINEMA 3 25 May 10:33:39 10:37:15 28° 291° (WNW) 10:40:47 145.822/145.860
Cosmos 2499 25 May 10:34:39 10:43:09 67° 79° (E) 10:51:58 435.465 / 435.565
AIST 1 25 May 10:38:00 10:41:13 20° 273° (W) 10:44:24
UWE-3 25 May 10:38:57 10:43:07 70° 101° (ESE) 10:47:18 435.000/436.395/437.385
SO-50 25 May 10:41:01 10:45:44 71° 55° (NE) 10:50:16 436.795
AUBIESAT-1 25 May 10:41:58 10:44:23 19° 298° (WNW) 10:46:46 437.475
COMPASS 1 25 May 10:42:00 10:46:01 44° 288° (WNW) 10:50:02 437.405
GONETS M04 25 May 10:42:47 10:51:28 74° 266° (W) 11:00:06
HUMSAT D 25 May 10:45:20 10:47:12 13° 91° (E) 10:49:02 437.325/437.525
M-CUBED/EXP-1 PRIME 25 May 10:46:46 10:48:31 14° 300° (WNW) 10:50:16 437.505
AAUSAT CUBESAT 2 25 May 10:47:15 10:51:18 48° 287° (WNW) 10:55:20 437.432
PCSat 25 May 10:50:21 10:55:28 45° 113° (ESE) 11:00:38 145.827
FUNcube-1 25 May 10:50:54 10:55:02 59° 101° (E) 10:59:12 145.935
ANTELSAT 25 May 10:53:48 10:58:08 63° 74° (ENE) 11:02:25 437.575/2403.000
NANOSAT C BR1 25 May 10:54:20 10:55:47 12° 62° (ENE) 10:57:13 145.865
O/OREOS (USA 219) 25 May 11:05:38 11:10:13 88° 115° (ESE) 11:14:48 437.305
SEEDS 25 May 11:28:19 11:29:53 12° 298° (WNW) 11:31:27 437.485
DUCHIFAT 1 25 May 11:31:49 11:35:23 27° 68° (ENE) 11:38:57 145.980
CUSAT 1 25 May 11:36:24 11:40:15 17° 78° (ENE) 11:44:33 437.405
Oscar 11 25 May 11:38:52 11:42:47 34° 290° (WNW) 11:46:43 145.826/435.025
DELFI C3 25 May 11:39:46 11:43:46 64° 286° (WNW) 11:47:46 145.870
CUBEBUG 2 25 May 11:42:11 11:44:54 17° 294° (WNW) 11:47:37 437.445
ZACube-1 25 May 11:47:51 11:51:30 30° 290° (WNW) 11:55:10 437.345
UNISAT 6 25 May 11:49:37 11:53:33 32° 263° (W) 11:57:26 437.425
HO-68 25 May 11:51:17 11:55:59 19° 306° (NW) 12:00:42 435.675
TIGRISAT 25 May 11:58:19 12:02:04 27° 264° (W) 12:05:47 435.000
BUGSAT 1 25 May 12:01:15 12:04:49 27° 69° (ENE) 12:08:21 437.445
POPSAT HIP 1 25 May 12:06:03 12:10:16 71° 75° (ENE) 12:14:30 437.405
QB50P1 25 May 12:06:42 12:10:56 74° 75° (ENE) 12:15:11 145.935-145.965
QB50P2 25 May 12:08:01 12:12:17 81° 74° (ENE) 12:16:32 145.880/145.840
POLYITAN 1 25 May 12:10:28 12:14:43 82° 74° (ENE) 12:18:58 437.675
UWE-3 25 May 12:17:58 12:19:01 11° 298° (WNW) 12:20:05 435.000/436.395/437.385
HUMSAT D 25 May 12:19:05 12:23:08 53° 286° (WNW) 12:27:12 437.325/437.525
SO-50 25 May 12:23:23 12:25:34 13° 253° (WSW) 12:27:41 436.795
AISAT 25 May 12:25:50 12:29:17 22° 94° (E) 12:32:41 437.250
NANOSAT C BR1 25 May 12:26:44 12:30:57 69° 258° (WSW) 12:35:11 145.865
Cosmos 2499 25 May 12:28:47 12:35:38 28° 277° (W) 12:42:40 435.465 / 435.565
FUNcube-1 25 May 12:28:57 12:30:48 13° 297° (WNW) 12:32:40 145.935
ANTELSAT 25 May 12:33:41 12:35:15 12° 270° (W) 12:36:48 437.575/2403.000
PCSat 25 May 12:34:21 12:39:02 29° 311° (NW) 12:43:45 145.827
BEESAT 3 25 May 12:34:47 12:38:18 32° 115° (ESE) 12:41:50 437.485
JAS-2 25 May 12:41:52 12:48:32 40° 64° (ENE) 12:55:37 435.910
GONETS M04 25 May 12:42:55 12:46:38 13° 286° (WNW) 12:50:22
DANDE 25 May 12:46:55 12:51:16 27° 83° (E) 12:56:39 436.750
UKube-1 25 May 12:48:13 12:51:46 24° 95° (E) 12:55:17 .
O/OREOS (USA 219) 25 May 12:48:40 12:50:18 12° 311° (NW) 12:51:56 437.305
ESTCUBE 1 25 May 12:52:24 12:56:56 61° 101° (E) 13:01:25 437.505/2401.250
50 SAT 25 May 12:58:20 13:02:00 55° 101° (E) 13:05:39 437.505
DUCHIFAT 1 25 May 13:07:28 13:11:01 26° 264° (W) 13:14:34 145.980
CUSAT 1 25 May 13:15:00 13:21:02 84° 280° (W) 13:28:38 437.405
Oscar 19 25 May 13:23:29 13:28:08 34° 68° (ENE) 13:32:47 437.125/150
VELOX 1 25 May 13:25:42 13:30:10 88° 284° (WNW) 13:34:34 145.980
CUBEBUG 1 25 May 13:25:46 13:30:11 84° 285° (WNW) 13:34:32 437.445
Gurwin Techsat 1B 25 May 13:26:59 13:30:15 17° 60° (ENE) 13:33:30 435.225
DX 1 25 May 13:29:25 13:33:48 86° 100° (E) 13:38:09 434.975-435.025
BEESAT 2 25 May 13:31:54 13:35:51 79° 123° (ESE) 13:39:51 435.950
BUGSAT 1 25 May 13:36:36 13:40:08 26° 264° (W) 13:43:39 437.445
AISAT 25 May 14:01:49 14:05:50 34° 291° (WNW) 14:09:49 437.250
ITAMSAT 1 25 May 14:01:55 14:04:24 14° 59° (ENE) 14:06:55 435.822/435.867
SPROUT 25 May 14:04:43 14:08:59 79° 283° (WNW) 14:13:13 437.525
Cosmos 2491 25 May 14:05:10 14:05:51 10° 52° (NE) 14:06:32 435.465 / 435.565
BEESAT 3 25 May 14:12:44 14:16:01 25° 313° (NW) 14:19:19 437.485
UKube-1 25 May 14:24:01 14:27:48 30° 292° (WNW) 14:31:35 .
JAS-2 25 May 14:26:28 14:33:20 46° 264° (W) 14:40:47 435.910
AO-85 25 May 14:28:23 14:30:01 12° 31° (NNE) 14:31:39 145.980
DANDE 25 May 14:28:34 14:33:36 44° 289° (WNW) 14:40:12 436.750
ESTCUBE 1 25 May 14:30:45 14:33:14 15° 298° (WNW) 14:35:43 437.505/2401.250
50 SAT 25 May 14:34:12 14:35:15 11° 296° (WNW) 14:36:19 437.505
BEESAT 25 May 14:38:26 14:40:25 12° 90° (E) 14:42:22 436.000
TISAT 1 25 May 14:38:27 14:42:37 66° 101° (ESE) 14:46:44 437.305
AO-7 25 May 14:52:04 14:58:52 30° 55° (NE) 15:05:41 29.400- 29.500
CUSAT 1 25 May 15:00:31 15:04:37 17° 303° (WNW) 15:09:10 437.405
Oscar 19 25 May 15:02:53 15:07:26 30° 264° (W) 15:12:00 437.125/150
Gurwin Techsat 1B 25 May 15:04:19 15:09:36 70° 258° (WSW) 15:14:56 435.225
BEESAT 2 25 May 15:12:11 15:14:13 14° 320° (NW) 15:16:17 435.950
AIST 2 25 May 15:20:13 15:24:19 70° 120° (ESE) 15:28:27 435.215
ITAMSAT 1 25 May 15:38:00 15:43:10 83° 257° (WSW) 15:48:23 435.822/435.867
SWISSCUBE 25 May 15:43:50 15:48:37 65° 102° (ESE) 15:53:23 437.505
ITUPSAT 1 25 May 15:48:36 15:53:24 64° 102° (ESE) 15:58:09 437.325
Cosmos 2491 25 May 15:56:33 16:05:07 54° 76° (ENE) 16:13:35 435.465 / 435.565
YUBILEINY 25 May 16:00:26 16:06:44 23° 80° (E) 16:13:01 435.215
AO-85 25 May 16:07:00 16:11:40 57° 53° (NE) 16:15:53 145.980
MOZHAYETS 4 25 May 16:12:36 16:13:35 11° 88° (E) 16:14:33
BEESAT 25 May 16:13:54 16:18:41 71° 286° (WNW) 16:23:26 436.000
KKS-1 25 May 16:14:04 16:16:29 14° 91° (E) 16:18:53 437.445
TISAT 1 25 May 16:16:14 16:17:43 12° 298° (WNW) 16:19:11 437.305
HORYU 2 25 May 16:38:20 16:41:57 25° 67° (ENE) 16:45:35 437.375
AO-7 25 May 16:42:46 16:51:00 69° 255° (WSW) 16:59:19 29.400- 29.500
RS-15 25 May 16:47:19 16:54:28 19° 97° (E) 17:01:47 29.354- 29.394
STARS 25 May 16:55:48 16:59:05 20° 94° (E) 17:02:20 437.465
AIST 2 25 May 17:00:45 17:03:15 15° 319° (NW) 17:05:46 435.215
SWISSCUBE 25 May 17:23:08 17:25:53 15° 299° (WNW) 17:28:37 437.505
ITUPSAT 1 25 May 17:27:55 17:30:43 16° 298° (WNW) 17:33:30 437.325
NOAA 18 25 May 17:28:36 17:32:08 18° 60° (ENE) 17:35:41 137.9125
BRITE-PL 25 May 17:33:26 17:36:59 17° 61° (ENE) 17:40:34 437.365/2234.400
MOZHAYETS 4 25 May 17:46:38 17:51:16 77° 284° (WNW) 17:55:53
AO-85 25 May 17:48:56 17:51:31 15° 253° (WSW) 17:53:59 145.980
KKS-1 25 May 17:49:03 17:53:23 53° 288° (WNW) 17:57:40 437.445
Cubesat XI-IV 25 May 17:49:29 17:53:19 21° 62° (ENE) 17:57:08 437.490
NOAA 15 25 May 17:52:27 17:57:04 31° 66° (ENE) 18:01:42 137.62
YUBILEINY 25 May 17:53:53 18:02:33 75° 279° (W) 18:11:17 435.215
Cosmos 2491 25 May 17:54:01 18:01:31 33° 276° (W) 18:09:00 435.465 / 435.565
GOMX 1 25 May 18:10:26 18:14:00 18° 63° (ENE) 18:17:33 467.674
HORYU 2 25 May 18:14:29 18:18:24 30° 263° (W) 18:22:19 437.375
Cosmos 2504 25 May 18:31:09 18:38:06 56° 91° (E) 18:45:26 435.465 / 435.565
STARS 25 May 18:31:32 18:35:33 36° 290° (WNW) 18:39:31 437.465
CUTE-I 25 May 18:34:57 18:40:03 51° 70° (ENE) 18:45:11 437.470
AO-7 25 May 18:42:26 18:45:13 12° 274° (W) 18:48:02 29.400- 29.500
HO-68 25 May 18:47:30 18:51:00 14° 51° (NE) 18:54:30 435.675
